Location: Bilsen
(53.7722°N, 9.8765°E)
Time: 05:00:29
(UTC+00:00)

STARLINK-1153 - Pass Details

Date: 18 February 2020
Orbit: 385 x 394 km, 53.0° (Epoch: 29 March)

Event Time Altitude Azimuth Distance (km) Brightness Sun altitude
Exits shadow 05:12:30 25° 269° (W) 818 3.9 -12.7°
Maximum altitude 05:14:10 73° 187° (S) 401 2.9 -12.5°
Drops below altitude 10° 05:17:18 10° 103° (ESE) 1,403 7.2 -12.0°
Sets 05:19:22 0° 102° (ESE) 2,260 8.8 -11.7°
